When you browse on this site, cookies collect data to enhance your experience and personalize the content and advertising you see.
Visit our Privacy Policy to learn more. By continuing to use the site, you agree to this use of cookies and data.
  • In Deutschland
  • Länderverzeichnis
  • Für 7 Tage
  • Wassertemperatur
  • Wetterkarte
  • Widgets
  • user-avatar
    Anmelden

    Stündliche Wetter Kashina

    Heute, 25 Februar, Dienstag

    Zeit Temperatur Niederschläge Wind Luftdruck Luftfeuchtigkeit
    00:00 -8°C° 0 mm 3 m/S 735 mmHg 89%
    01:00 -8°C° 0 mm 3 m/S 735 mmHg 91%
    02:00 -9°C° 0 mm 3 m/S 736 mmHg 92%
    03:00 -9°C° 0 mm 3 m/S 736 mmHg 93%
    04:00 -9°C° 0 mm 2 m/S 736 mmHg 95%
    05:00 -9°C° 0 mm 2 m/S 737 mmHg 95%
    06:00 -9°C° 0 mm 2 m/S 737 mmHg 95%
    07:00 -9°C° 0 mm 2 m/S 737 mmHg 95%
    08:00 -7°C° 0 mm 2 m/S 737 mmHg 92%
    09:00 -6°C° 0 mm 2 m/S 737 mmHg 90%
    10:00 -4°C° 0 mm 2 m/S 738 mmHg 86%
    11:00 -3°C° 0 mm 2 m/S 738 mmHg 85%
    12:00 -2°C° 0 mm 3 m/S 738 mmHg 84%
    13:00 -2°C° 0 mm 3 m/S 738 mmHg 83%
    14:00 -2°C° 0 mm 3 m/S 737 mmHg 85%
    15:00 -4°C° 0 mm 3 m/S 737 mmHg 87%
    16:00 -5°C° 0 mm 3 m/S 737 mmHg 90%
    17:00 -6°C° 0 mm 3 m/S 737 mmHg 92%
    18:00 -8°C° 0 mm 4 m/S 737 mmHg 94%
    19:00 -9°C° 0 mm 4 m/S 736 mmHg 96%
    20:00 -9°C° 0 mm 4 m/S 736 mmHg 96%
    21:00 -9°C° 0 mm 4 m/S 736 mmHg 95%
    22:00 -9°C° 0 mm 4 m/S 735 mmHg 95%
    23:00 -9°C° 0 mm 4 m/S 735 mmHg 95%

    Morgen, 26 Februar, Mittwoch

    Zeit Temperatur Niederschläge Wind Luftdruck Luftfeuchtigkeit
    00:00 -9°C° 0 mm 4 m/S 734 mmHg 94%
    01:00 -10°C° 0 mm 5 m/S 734 mmHg 94%
    02:00 -9°C° 0 mm 4 m/S 733 mmHg 93%
    03:00 -9°C° 0 mm 4 m/S 732 mmHg 93%
    04:00 -9°C° 0 mm 4 m/S 732 mmHg 93%
    05:00 -9°C° 0.1 mm 4 m/S 731 mmHg 93%
    06:00 -9°C° 0.1 mm 4 m/S 730 mmHg 94%
    07:00 -8°C° 0.1 mm 4 m/S 729 mmHg 94%
    08:00 -8°C° 0.4 mm 4 m/S 728 mmHg 94%
    09:00 -7°C° 0.4 mm 4 m/S 728 mmHg 94%
    10:00 -5°C° 0.4 mm 4 m/S 727 mmHg 94%
    11:00 -5°C° 1.1 mm 4 m/S 726 mmHg 95%
    12:00 -4°C° 1.1 mm 3 m/S 725 mmHg 95%
    13:00 -4°C° 1.1 mm 3 m/S 725 mmHg 95%
    14:00 -2°C° 0.8 mm 3 m/S 724 mmHg 96%
    15:00 -2°C° 0.8 mm 3 m/S 724 mmHg 96%
    16:00 -1°C° 0.8 mm 2 m/S 723 mmHg 97%
    17:00 -2°C° 0.6 mm 2 m/S 723 mmHg 97%
    18:00 -3°C° 0.6 mm 2 m/S 723 mmHg 97%
    19:00 -3°C° 0.6 mm 2 m/S 723 mmHg 97%
    20:00 -3°C° 0.3 mm 2 m/S 723 mmHg 96%
    21:00 -4°C° 0.3 mm 3 m/S 723 mmHg 95%
    22:00 -5°C° 0.3 mm 4 m/S 724 mmHg 94%
    23:00 -6°C° 0.1 mm 5 m/S 724 mmHg 91%

    übermorgen, 27 Februar, Donnerstag

    Zeit Temperatur Niederschläge Wind Luftdruck Luftfeuchtigkeit
    00:00 -5°C° 0.1 mm 5 m/S 725 mmHg 89%
    01:00 -5°C° 0.1 mm 6 m/S 725 mmHg 86%
    02:00 -5°C° 0 mm 6 m/S 726 mmHg 86%
    03:00 -6°C° 0 mm 7 m/S 727 mmHg 86%
    04:00 -6°C° 0 mm 7 m/S 728 mmHg 86%
    05:00 -6°C° 0 mm 7 m/S 729 mmHg 85%
    06:00 -5°C° 0 mm 6 m/S 730 mmHg 84%
    07:00 -6°C° 0 mm 6 m/S 731 mmHg 82%
    08:00 -6°C° 0 mm 6 m/S 731 mmHg 82%
    09:00 -6°C° 0 mm 6 m/S 732 mmHg 82%
    10:00 -8°C° 0 mm 6 m/S 733 mmHg 81%
    11:00 -6°C° 0 mm 6 m/S 734 mmHg 79%
    12:00 -5°C° 0 mm 5 m/S 734 mmHg 76%
    13:00 -4°C° 0 mm 5 m/S 735 mmHg 73%
    14:00 -3°C° 0 mm 4 m/S 735 mmHg 75%
    15:00 -3°C° 0 mm 4 m/S 735 mmHg 78%
    16:00 -2°C° 0 mm 3 m/S 736 mmHg 80%
    17:00 -3°C° 0 mm 4 m/S 736 mmHg 83%
    18:00 -3°C° 0 mm 4 m/S 736 mmHg 85%
    19:00 -4°C° 0 mm 4 m/S 737 mmHg 87%
    20:00 -4°C° 0 mm 4 m/S 737 mmHg 88%
    21:00 -4°C° 0 mm 3 m/S 737 mmHg 89%
    22:00 -4°C° 0 mm 3 m/S 738 mmHg 90%
    23:00 -2°C° 0 mm 3 m/S 738 mmHg 90%

    28 Februar, Freitag

    Zeit Temperatur Niederschläge Wind Luftdruck Luftfeuchtigkeit
    00:00 -2°C° 0 mm 3 m/S 738 mmHg 90%
    01:00 -2°C° 0 mm 3 m/S 739 mmHg 90%
    02:00 -2°C° 0 mm 3 m/S 739 mmHg 90%
    03:00 -2°C° 0 mm 3 m/S 739 mmHg 90%
    04:00 -2°C° 0 mm 3 m/S 739 mmHg 90%
    05:00 -1°C° 0 mm 3 m/S 739 mmHg 89%
    06:00 -1°C° 0 mm 3 m/S 738 mmHg 88%
    07:00 -2°C° 0 mm 4 m/S 738 mmHg 87%
    08:00 -1°C° 0 mm 4 m/S 738 mmHg 87%
    09:00 -1°C° 0 mm 4 m/S 739 mmHg 87%
    10:00 0°C° 0 mm 4 m/S 739 mmHg 86%
    11:00 0°C° 0 mm 4 m/S 739 mmHg 88%
    12:00 0°C° 0 mm 4 m/S 739 mmHg 89%
    13:00 +1°C° 0 mm 4 m/S 739 mmHg 90%
    14:00 +1°C° 0 mm 3 m/S 740 mmHg 90%
    15:00 +1°C° 0 mm 3 m/S 740 mmHg 91%
    16:00 +2°C° 0 mm 2 m/S 740 mmHg 91%
    17:00 +1°C° 0 mm 2 m/S 741 mmHg 91%
    18:00 -1°C° 0 mm 2 m/S 741 mmHg 90%
    19:00 -1°C° 0 mm 2 m/S 741 mmHg 89%
    20:00 -1°C° 0 mm 2 m/S 741 mmHg 89%
    21:00 -1°C° 0 mm 2 m/S 741 mmHg 88%
    22:00 -1°C° 0 mm 2 m/S 741 mmHg 88%
    23:00 -1°C° 0 mm 2 m/S 741 mmHg 88%

    29 Februar, Samstag

    Zeit Temperatur Niederschläge Wind Luftdruck Luftfeuchtigkeit
    00:00 -1°C° 0 mm 2 m/S 741 mmHg 88%
    01:00 -1°C° 0 mm 2 m/S 741 mmHg 88%
    02:00 -2°C° 0 mm 2 m/S 741 mmHg 87%
    03:00 -2°C° 0 mm 2 m/S 741 mmHg 87%
    04:00 -2°C° 0 mm 2 m/S 741 mmHg 86%
    05:00 -4°C° 0 mm 3 m/S 741 mmHg 84%
    06:00 -4°C° 0 mm 3 m/S 740 mmHg 83%
    07:00 -4°C° 0 mm 4 m/S 740 mmHg 81%
    08:00 -3°C° 0 mm 4 m/S 740 mmHg 76%
    09:00 -4°C° 0 mm 5 m/S 740 mmHg 72%
    10:00 -3°C° 0 mm 6 m/S 739 mmHg 67%
    11:00 -3°C° 0 mm 6 m/S 739 mmHg 69%
    12:00 -3°C° 0 mm 6 m/S 739 mmHg 70%
    13:00 -2°C° 0 mm 6 m/S 739 mmHg 71%
    14:00 -3°C° 0 mm 6 m/S 739 mmHg 72%
    15:00 -4°C° 0 mm 6 m/S 738 mmHg 73%
    16:00 -5°C° 0 mm 5 m/S 738 mmHg 74%
    17:00 -6°C° 0 mm 5 m/S 738 mmHg 78%
    18:00 -6°C° 0 mm 5 m/S 737 mmHg 82%
    19:00 -7°C° 0 mm 5 m/S 737 mmHg 86%
    20:00 -7°C° 0 mm 4 m/S 737 mmHg 88%
    21:00 -7°C° 0 mm 4 m/S 737 mmHg 89%
    22:00 -7°C° 0 mm 4 m/S 737 mmHg 90%
    23:00 -6°C° 0.1 mm 3 m/S 737 mmHg 91%

    1 März, Sonntag

    Zeit Temperatur Niederschläge Wind Luftdruck Luftfeuchtigkeit
    00:00 -6°C° 0.1 mm 3 m/S 737 mmHg 92%
    01:00 -5°C° 0.1 mm 2 m/S 737 mmHg 93%
    02:00 -6°C° 0 mm 2 m/S 737 mmHg 93%
    03:00 -7°C° 0 mm 2 m/S 737 mmHg 93%
    04:00 -7°C° 0 mm 2 m/S 737 mmHg 93%
    05:00 -7°C° 0 mm 2 m/S 737 mmHg 93%
    06:00 -8°C° 0 mm 2 m/S 738 mmHg 92%
    07:00 -8°C° 0 mm 2 m/S 738 mmHg 91%
    08:00 -6°C° 0 mm 2 m/S 738 mmHg 89%
    09:00 -4°C° 0 mm 2 m/S 738 mmHg 87%
    10:00 0°C° 0 mm 1 m/S 739 mmHg 85%
    11:00 0°C° 0 mm 1 m/S 739 mmHg 86%
    12:00 +1°C° 0 mm 1 m/S 739 mmHg 87%
    13:00 +2°C° 0 mm 1 m/S 739 mmHg 89%
    14:00 +2°C° 0 mm 1 m/S 739 mmHg 90%
    15:00 +2°C° 0 mm 1 m/S 739 mmHg 92%
    16:00 +1°C° 0 mm 1 m/S 739 mmHg 93%
    17:00 +1°C° 0 mm 1 m/S 739 mmHg 94%
    18:00 0°C° 0 mm 1 m/S 739 mmHg 95%
    19:00 -1°C° 0 mm 1 m/S 739 mmHg 95%
    20:00 -2°C° 0 mm 0 m/S 739 mmHg 95%
    21:00 -2°C° 0 mm 0 m/S 739 mmHg 95%
    22:00 -3°C° 0 mm 0 m/S 739 mmHg 95%
    23:00 -2°C° 0 mm 1 m/S 739 mmHg 95%
    Mehr zeigen